Location: Asni�res
(49.1337°N, 2.3555°E)
Time: 19:11:51
(UTC+00:00)

Cosmos 1535 Rocket - Pass Details

Date: 25 May 2022
Orbit: 949 x 1003 km, 83.0° (Epoch: 28 June)

Event Time Altitude Azimuth Distance (km) Brightness Sun altitude
Rises 02:55:17 0° 359° (N) 3,651 8.3 -8.5°
Reaches altitude 10° 02:58:37 10° 17° (NNE) 2,708 8.0 -8.1°
Maximum altitude 03:02:56 19° 61° (ENE) 2,116 7.5 -7.6°
Drops below altitude 10° 03:07:16 10° 106° (ESE) 2,722 7.3 -7.1°
Sets 03:10:36 0° 123° (ESE) 3,676 7.7 -6.7°
